{"data":{"norad_id":57068,"intl_designator":"2023-088W","name":"STARLINK-5844","alt_names":[],"object_type":"PAYLOAD","status":"ACTIVE","operator":null,"country":"US","launch_date":"2023-06-22","launch_site_code":"AFWTR","launch_vehicle":null,"mission":null,"orbit_class":"UNKNOWN","rcs_meters":null,"size_class":null,"mass_kg":null,"dimensions":null,"purposes":["comms"],"wikipedia_slug":null,"has_3d_model":false,"image_url":null,"decayed_at":null,"tle_current":{"epoch":"2026-09-20T21:20:31.544736Z","epoch_age_seconds":87377,"freshness":"FRESH","line1":"1 57068U 23088W   26263.88925399 -.00006349  00000+0 -22122-3 0  9994","line2":"2 57068  43.0022  91.8521 0000587 303.7766  56.3029 15.27606140180148","mean_motion":15.2760614,"eccentricity":5.87e-5,"inclination_deg":43.0022,"raan_deg":91.8521,"arg_perigee_deg":303.7766,"mean_anomaly_deg":56.3029,"bstar":-0.00022122,"rev_number":18014,"period_min":94.265135645501,"perigee_km":482.56807756269,"apogee_km":483.37357162129,"semimajor_km":6861.107824592,"source":"CELESTRAK","updated_at":"2026-09-21T09:00:33.552142Z"}}}